Torna al catalogo

COSMOS 2251 DEB

AttivoLEO
NORAD 34343·DEBRIS·🇷🇺 Russia

Lanciato Jun 16, 1993 da Plesetsk Cosmodrome

Loading…

Prossimi Passaggi (prossime 24 ore)

TLE

AggiornatoSource: Space-Track

Epoca: Sep 14, 2026, 01:56 UTC

1 34343U 93036PR  26257.08087696  .00004300  00000-0  66522-3 0  9995
2 34343  74.0159 273.6256 0016492 123.5147 300.1069 14.73481234927814

Traccia COSMOS 2251 DEB in tempo reale con AllMySat

Download on the App Store